Change the Weather History Date:

Friday, October 26, 2012

  Actual Average Record
Temperature  
Mean Temperature 68 °F -  
Max Temperature 80 °F 73 °F 82 °F (1996)
Min Temperature 57 °F 52 °F 51 °F (1996)
Cooling Degree Days 4    
Growing Degree Days 18 (Base 50)    
Moisture  
Dew Point 50 °F    
Average Humidity 55    
Maximum Humidity 83    
Minimum Humidity 32    
Precipitation  
Precipitation 0.00 in - - ()
Sea Level Pressure  
Sea Level Pressure 30.21 in    
Wind  
Wind Speed 3 mph ()    
Max Wind Speed 16 mph    
Max Gust Speed -    
Visibility 6.2 miles    
Events      
Averages and records for this station are not official NWS values.
T = Trace of Precipitation, MM = Missing Value Source: Averaged Metar Reports

Daily Weather History Graph

Daily Weather History Graph

Search for Another Location

Airport or City:

Trip Planner

Search our weather history database for the weather conditions in past years. The results will help you decide how hot, cold, wet, or windy it might be!

Date:

Astronomy

Oct. 26, 2012 Rise Set
Actual Time 6:05 AM AST 5:39 PM AST
Civil Twilight 5:43 AM AST 6:01 PM AST
Nautical Twilight 5:18 AM AST 6:27 PM AST
Astronomical Twilight 4:52 AM AST 6:52 PM AST
Moon 3:23 PM AST (10/26) 3:05 AM AST (10/26)
Length of Visible Light 12h 17m
Length of Day
11h 33m
Waxing Gibbous, 89% of the Moon is Illuminated
Oct 26
Waxing Gibbous
Oct 29
Full
Nov 7
Last Quarter
Nov 14
New
Nov 20
First Quarter

Hourly Weather History & Observations

Time (AST) Temp. Dew Point Humidity Pressure Visibility Wind Dir Wind Speed Gust Speed Precip Events Conditions
12:00 AM 62.6 °F 53.6 °F 72% 30.21 in - South 4.6 mph - N/A   Clear
1:00 AM 60.8 °F 48.2 °F 63% 30.21 in - Calm Calm - N/A   Clear
2:00 AM 59.0 °F 42.8 °F 55% 30.21 in - Calm Calm - N/A   Clear
3:00 AM 59.0 °F 42.8 °F 55% 30.21 in - Calm Calm - N/A   Clear
4:00 AM 57.2 °F 44.6 °F 63% 30.21 in - Calm Calm - N/A   Clear
5:00 AM 57.2 °F 46.4 °F 67% 30.21 in - Calm Calm - N/A   Clear
6:00 AM 59.0 °F 48.2 °F 67% 30.24 in - Calm Calm - N/A   Clear
7:00 AM 57.2 °F 50.0 °F 77% 30.24 in - Calm Calm - N/A   Clear
8:00 AM 62.6 °F 46.4 °F 55% 30.24 in - WSW 4.6 mph - N/A   Clear
9:00 AM 68.0 °F 44.6 °F 43% 30.27 in - South 4.6 mph - N/A   Clear
10:00 AM 73.4 °F 42.8 °F 33% 30.27 in - WSW 6.9 mph - N/A   Clear
11:00 AM 77.0 °F 44.6 °F 32% 30.24 in - WSW 6.9 mph - N/A   Clear
12:00 PM 78.8 °F 48.2 °F 34% 30.21 in 6.2 mi West 4.6 mph - N/A   Partly Cloudy
1:00 PM 78.8 °F 48.2 °F 34% 30.18 in 6.2 mi SW 9.2 mph - N/A   Partly Cloudy
2:00 PM 80.6 °F 48.2 °F 32% 30.15 in 6.2 mi SW 11.5 mph - N/A   Partly Cloudy
3:00 PM 78.8 °F 48.2 °F 34% 30.15 in 6.2 mi West 4.6 mph - N/A   Scattered Clouds
4:00 PM 78.8 °F 48.2 °F 34% 30.15 in 6.2 mi East 4.6 mph - N/A   Scattered Clouds
5:00 PM 78.8 °F 48.2 °F 34% 30.15 in 6.2 mi WSW 13.8 mph - N/A   Scattered Clouds
6:00 PM 69.8 °F 55.4 °F 60% 30.18 in 6.2 mi SW 16.1 mph - N/A   Partly Cloudy
7:00 PM 68.0 °F 57.2 °F 68% 30.18 in - WSW 11.5 mph - N/A   Clear
8:00 PM 68.0 °F 57.2 °F 68% 30.21 in - WSW 4.6 mph - N/A   Clear
9:00 PM 66.2 °F 59.0 °F 78% 30.24 in - SW 4.6 mph - N/A   Clear
10:00 PM 66.2 °F 59.0 °F 78% 30.24 in - South 2.3 mph - N/A   Clear
11:00 PM 64.4 °F 59.0 °F 83% 30.24 in - Calm Calm - N/A   Clear